Starlink 1687

operational
NORAD ID: 46541 Int'l Des: 2020-070 Owner: SPXS Country: US Constellation: starlink
LEOCIRCULAR

关于 Starlink 1687

正在加载描述...

实时位置

正在加载3D地球...

即将过境

高度历史

Altitude vs Time

uPlot chart will show altitude changes over time

两行轨道根数

1 46541U 20070K 25354.25003471 .00218856 00000-0 27273-2 0 9993
2 46541 53.0466 129.0443 0013356 154.9526 35.6302 15.58579806 5917
Epoch: Dec 20, 2025 • Age: 8 hours

当前状态

高度 407.1 km
速度 7.67 km/s
星下点 -46.66°S, 61.55°E
发射日期 Oct 6, 2020
运行时间 5.2 years
类型 internet

技术详情

分类 Payload
质量 260.00 kg
干质量 248.00 kg
总质量 260.00 kg
长度 0.20 m
直径 2.80 m
跨度 9.00 m
形状 Box + pan
制造商 SPXS
平台类型 Starlink
阶段状态 In Orbit
所有者/国家 SPXS/US

大型星座

Loading constellations...